Skip Page Navigation
NASA JPL Caltech
NASA Logo - Jet Propulsion Laboratory + View the NASA Portal
+ Center for Near-Earth Object Studies
JPL Home Earth Solar System Stars & Galaxies Technology
JPL Solar System Dynamics
BODIES ORBITS EPHEMERIDES TOOLS PHYSICAL DATA DISCOVERY FAQ SITE MAP
IMPORTANT: The SSD Announcement email list is now available. Major changes are coming in the near future, including possible hostname and/or URL changes. To be notified of such changes, subscribe to this email list.

Please visit this page for more details.


JPL Small-Body Database Browser
Search: [ help ]  
185220 (2006 TK62)
Classification: Main-belt Asteroid          SPK-ID: 2185220
Ephemeris | Orbit Diagram | Orbital Elements | Mission Design | Physical Parameters | Discovery Circumstances ]

[ show orbit diagram ]
Orbital Elements at Epoch 2459000.5 (2020-May-31.0) TDB
Reference: JPL 16 (heliocentric ecliptic J2000)
 Element Value Uncertainty (1-sigma)   Units 
e .1020598147521143 6.6915e-08  
a 2.523022255173851 1.7629e-08 au
q 2.265523071195346 1.6636e-07 au
i 12.30866121716358 6.8311e-06 deg
node 130.7027131149196 2.0044e-05 deg
peri 218.8894717080187 3.0292e-05 deg
M 163.1238269271182 2.3846e-05 deg
tp 2458337.222981842887
(2018-Aug-06.72298184)
9.5874e-05 TDB
period 1463.794290721517
4.01
1.5342e-05
4.2e-08
d
yr
n .2459361962824386 2.5777e-09 deg/d
Q 2.780521439152356 1.9428e-08 au
  Orbit Determination Parameters
   # obs. used (total)      308  
   data-arc span      6829 days (18.70 yr)  
   first obs. used      2001-05-23  
   last obs. used      2020-02-02  
   planetary ephem.      DE431  
   SB-pert. ephem.      SB431-N16  
   condition code      0  
   norm. resid. RMS      .629  
   source      ORB  
   producer      Otto Matic  
   solution date      2020-Feb-24 20:02:21  

Additional Information
 Earth MOID = 1.26946 au 
 Jupiter MOID = 2.59915 au 
 T_jup = 3.416 
[ show covariance matrix ]

Ephemeris | Orbit Diagram | Orbital Elements | Mission Design | Physical Parameters | Discovery Circumstances ]

Physical Parameter Table
Parameter Symbol Value Units Sigma Reference Notes
absolute magnitude H 16.5   n/a MPO412999  
diameter diameter 3.080 km 0.111 urn:nasa:pds:neowise_diameters_albedos::2.0[mainbelt] (http://adsabs.harvard.edu/abs/2011ApJ...741...68M)  
geometric albedo albedo 0.043   0.005 urn:nasa:pds:neowise_diameters_albedos::2.0[mainbelt] (http://adsabs.harvard.edu/abs/2011ApJ...741...68M)  

185220 (2006 TK62)          Discovered 2006-Oct-09 by NEAT at Palomar
Reference: 20080420/Numbers.arcLast Updated: 2008-04-23
Ephemeris | Orbit Diagram | Orbital Elements | Mission Design | Physical Parameters | Discovery Circumstances ]
ABOUT SSD CREDITS/AWARDS PRIVACY/COPYRIGHT GLOSSARY LINKS
FirstGov 2020-Feb-26 01:51 UT
(server date/time)  
NASA Home Page
Site Manager:   Ryan S. Park
Webmaster  Alan B. Chamberlin